This is the latest recevied weather packets stored in our database for station/object VU3HGG-WX. If no packets are shown the sender has not sent any weather packets the latest 10 day(s).
| Time | Temp. | Humidity | Pressure | Rain* | Wind** | Luminosity | Snow |
|---|---|---|---|---|---|---|---|
| 1788077003 | 26.67° C | 60% | 909.6 hPa | - | - | - | - |
| 1788076403 | 27.22° C | 60% | 909.7 hPa | - | - | - | - |
| 1788075803 | 27.22° C | 60% | 909.6 hPa | - | - | - | - |
| 1788075203 | 27.22° C | 60% | 909.9 hPa | - | - | - | - |
| 1788074603 | 26.67° C | 60% | 910.1 hPa | - | - | - | - |
| 1788074003 | 26.67° C | 60% | 910.2 hPa | - | - | - | - |
| 1788073403 | 26.67° C | 61% | 910.4 hPa | - | - | - | - |
| 1788072803 | 26.67° C | 62% | 910.7 hPa | - | - | - | - |
| 1788072203 | 24.44° C | 65% | 910.7 hPa | - | - | - | - |
| 1788072143 | 24.44° C | 66% | 910.9 hPa | - | - | - | - |
| 1788071544 | 24.44° C | 66% | 910.9 hPa | - | - | - | - |
| 1788070944 | 24.44° C | 66% | 911 hPa | - | - | - | - |
| 1788070343 | 24.44° C | 67% | 911 hPa | - | - | - | - |
| 1788069744 | 24.44° C | 68% | 911.1 hPa | - | - | - | - |
| 1788069143 | 24.44° C | 68% | 911.3 hPa | - | - | - | - |
| 1788068543 | 24.44° C | 69% | 911.4 hPa | - | - | - | - |
| 1788067943 | 23.89° C | 69% | 911.3 hPa | - | - | - | - |
| 1788067343 | 23.89° C | 68% | 911.2 hPa | - | - | - | - |
| 1788066744 | 23.89° C | 68% | 911.2 hPa | - | - | - | - |
| 1788066143 | 23.33° C | 69% | 911.4 hPa | - | - | - | - |
| 1788065543 | 23.89° C | 70% | 911.4 hPa | - | - | - | - |
| 1788064943 | 23.33° C | 71% | 911.5 hPa | - | - | - | - |
| 1788064343 | 23.33° C | 71% | 911.4 hPa | - | - | - | - |
| 1788063743 | 23.33° C | 72% | 911.5 hPa | - | - | - | - |
| 1788063143 | 23.33° C | 74% | 911.5 hPa | - | - | - | - |
* Rain since midnight (hover to see other rain measurements)
** Current wind speed in m/s (hover to see current wind gust speed)